Current weather by "City, St" or "zip code"  
 

Current Conditions: Tri-Township Airport, IL

Fair


36.0 F

Last Updated on Oct 24 2020, 9:55 pm CDT
Humidity: 81%
Wind Speed: NE 4.6 mph
Barometer 30.24 in
Dewpoint: 30.2 F
Visibility: 10.00 mi
Precip: --
Heat Index: NA
Wind Chill: 32 F
Current conditions at:

Tri-Township Airport, IL (KSFY)

Lat: 42.04544 Lon: 90.11009

Local Radar Image active severe weather and emergency alerts image image weather storm and storm spotter reports image weather observation monitoring service image
Local
Radar
Active
Alerts
Storm Reports Obs
Monitoring

Sign-up For Email & Text Message Weather Alert Notification Services



Advertise Here

Observation History for Tri-Township Airport, IL


Time Wind
(mph)
Vis
(mi)
Weather Precip (in) Temperature (F) Relative
Humidity
Wind
Chill
(F)
Heat
Index
(F)
Pressure
Air Dwpt altimeter
(in)
sea level
(mb)
Rmks
9:55 pm CDT NE 4.6 10.00 Fair -- 36.0 30.2 81% 32 NA 30.24 M
8:55 pm CDT N 6.9 10.00 Fair -- 36.0 30.2 81% 30 NA 30.23 M
7:55 pm CDT NE 4.6 10.00 Fair -- 37.0 30.2 75% 33 NA 30.21 M
6:55 pm CDT N 4.6 10.00 Partly Cloudy -- 37.0 30.2 75% 33 NA 30.22 M
6:35 pm CDT NE 3.5 10.00 Partly Cloudy -- 37.0 28.4 70% NA NA 30.22 M
5:55 pm CDT N 3.5 10.00 Overcast -- 41.0 28.4 61% NA NA 30.22 M
4:55 pm CDT N 0.0 10.00 Partly Cloudy -- 43.0 28.4 57% NA NA 30.22 M
4:35 pm CDT N 5.8 10.00 Overcast -- 43.0 28.4 57% 39 NA 30.23 M
3:55 pm CDT W 4.6 10.00 Mostly Cloudy -- 43.0 28.4 57% 40 NA 30.22 M
2:55 pm CDT NW 4.6 10.00 Overcast -- 43.0 28.4 57% 40 NA 30.23 M
1:55 pm CDT W 5.8 10.00 Overcast -- 43.0 30.2 61% 39 NA 30.26 M
12:55 pm CDT NW 5.8 10.00 Overcast -- 41.0 28.4 61% 37 NA 30.28 M
11:55 am CDT N 0.0 10.00 Overcast -- 39.0 28.4 65% NA NA 30.31 M
10:55 am CDT N 0.0 10.00 Overcast -- 37.0 28.4 70% NA NA 30.33 M
9:55 am CDT NE 5.8 10.00 Overcast -- 37.0 28.4 70% 32 NA 30.33 M
8:55 am CDT NE 3.5 10.00 Overcast -- 36.0 28.4 75% NA NA 30.34 M
7:55 am CDT NE 4.6 10.00 Overcast -- 36.0 30.2 81% 32 NA 30.32 M
6:55 am CDT N 0.0 10.00 Overcast -- 36.0 30.2 81% NA NA 30.33 M
6:35 am CDT N 0.0 10.00 Overcast -- 36.0 30.2 81% NA NA 30.34 M
5:55 am CDT N 3.5 10.00 Overcast -- 36.0 28.4 75% NA NA 30.34 M
4:55 am CDT NE 4.6 10.00 Overcast -- 36.0 28.4 75% 32 NA 30.33 M
3:55 am CDT N 5.8 10.00 Overcast -- 36.0 28.4 75% 31 NA 30.32 M
2:55 am CDT N 8.1 10.00 Overcast -- 36.0 30.2 81% 30 NA 30.32 M
2:35 am CDT N 6.9 10.00 Overcast -- 37.0 30.2 75% 32 NA 30.32 M

Regional Weather Observation


Dubuque Regional Airport, IA (KDBQ)

Fair
36.0 F

Platteville Municipal Airport, WI (KPVB)

Overcast
36.0 F

Iowa County Airport, WI (KMRJ)

Partly Cloudy
36.0 F

Clinton Municipal Airport, IA (KCWI)

Fair
36.0 F

Albertus Airport, IL (KFEP)

Fair
35.0 F

Monroe Municipal Airport, WI (KEFT)

Partly Cloudy
36.0 F